Main page
METAR-TAF:

METAR-TAF

Airports :

Shahrekord, Iran

Shahrekord Airport

latitude: 32-20N, longitude: 050-51E, elevation: 2078 m

Current weather observation

The report was made 34 minutes ago, at 19:00 UTC
Wind 2 kt from the North/Northwest
Temperature -2°C
Humidity 50%
Pressure 1025 hPa
Visibility 10 km or more
no clouds below 1500 m and no cumulonimbus

METAR: OIFS 171900Z 34002KT CAVOK M02/M11 Q1025

Time: 23:04 (19:34 UTC)


TAF: missing

Weather observations and forecasts of more than 4000 airports (METAR and TAF reports).

The available stations are represented by yellow and red dots on the map.

Hover mouse over dot to see the name of the station.

Then click to see weather observations and forecasts.

To change the map : click on the green buttons with a black cross to zoom in, on the green button with a dash to zoom out, or on the green arrows for adjacent maps.


METAR-TAF: